Regional Weather Roundup
Issued by NWS

Home | Current Version | Previous Version | Graphics & Text | Print | Product List | Glossary On
Versions: 1 2 3 4 5 6 7 8 9 10 11 12 13 14 15 16 17 18 19 20 21 22 23 24 25 26 27 28 29 30 31 32 33 34 35 36 37 38 39 40 41 42 43 44 45 46 47 48 49 50
000
ASUS45 KABQ 272201
RWRNM
WEATHER ROUNDUP FOR NEW MEXICO
NATIONAL WEATHER SERVICE ALBUQUERQUE NM
300 PM MST SAT DEC 27 2014

NOTE: "FAIR" MEANS FEW OR NO CLOUDS BELOW 12,000 FEET AGL WITH NO
       SIGNIFICANT WEATHER OR OBSTRUCTIONS TO VISION.

      THIS PRODUCT IS RELEASED AS TWO VERSIONS.  ONE VERSION NEAR
      THE TOP OF THE HOUR CONTAINING PRELIMINARY DATA FROM ALBUQUERQUE
      AND OTHER STATIONS.  A FINAL VERSION WITH ADDITIONAL DATA IS
      ISSUED ABOUT 10 MINUTES AFTER THE HOUR.

NMZ501-503-504-510>518-272300-
NORTHWEST PLATEAU/NORTHCENTRAL MOUNTAINS

CITY           SKY/WX    TMP DP  RH WIND       PRES   REMARKS
FARMINGTON     SUNNY     26  13  57 CALM      30.23S
LOS ALAMOS     PTSUNNY   25  12  58 E5        30.15S WCI  19
SANTA FE       SUNNY     30  13  49 SW8       30.15R WCI  22
TAOS           SUNNY     25   9  50 CALM      30.13F
ANGEL FIRE     FAIR      19   4  53 W15G21    30.08R WCI   5

$$
NMZ402-403-502-505>509-272300-
WESTCENTRAL MOUNTAINS/SOUTHWEST MOUNTAINS

CITY           SKY/WX    TMP DP  RH WIND       PRES   REMARKS
GALLUP         SUNNY     27   8  44 CALM      30.21S
GRANTS         SUNNY     31   6  34 N9        30.20S WCI  23
SILVER CITY    MOSUNNY   37  10  32 SW6       30.18S WCI  33

$$
NMZ407-409-411-412-272300-
SOUTHERN DESERTS

CITY           SKY/WX    TMP DP  RH WIND       PRES   REMARKS
LORDSBURG      FAIR      41  23  48 S3        30.19R
DEMING         SUNNY     40  25  55 E6        30.18F
HOLLOMAN AFB   SUNNY     43  23  45 VRB3      30.17F
ALAMOGORDO     SUNNY     43  21  42 NW8       30.18F
T OR C         SUNNY     42   9  25 N7        30.17S

$$
NMZ519>523-272300-
CENTRAL VALLEYS/CENTRAL HIGHLANDS

CITY           SKY/WX    TMP DP  RH WIND       PRES   REMARKS
ALBUQUERQUE    MOSUNNY   36  11  35 VRB3      30.20S
DOUBLE EAGLE   MOSUNNY   34  10  37 W5        30.19S WCI  30
MORIARTY ARPT  MOCLDY    29  18  64 CALM      30.17S
CLINES CORNERS SUNNY     26  14  60 NW12      30.11S WCI  16
BELEN          FAIR      37  12  35 CALM      30.20S
SOCORRO        FAIR      40  12  32 N9        30.20S WCI  34

$$
NMZ524>526-539-540-272300-
SOUTHCENTRAL MOUNTAINS

CITY           SKY/WX    TMP DP  RH WIND       PRES   REMARKS
RUIDOSO        PTSUNNY   30  14  51 N6        30.15S WCI  24

$$
NMZ527>531-272300-
NORTHEAST HIGHLANDS/NORTHEAST PLAINS

CITY           SKY/WX    TMP DP  RH WIND       PRES   REMARKS
LAS VEGAS      SUNNY     26  15  63 S16       30.09S WCI  14
RATON          SUNNY     17  12  80 SW7       30.11S WCI   8
CLAYTON        SUNNY     31  18  58 S9        30.15S WCI  23

$$
NMZ532>537-272300-
EASTCENTRAL PLAINS

CITY           SKY/WX    TMP DP  RH WIND       PRES   REMARKS
TUCUMCARI      CLOUDY    29  19  66 CALM      30.22F
CANNON AFB     SUNNY     34  17  49 NW5       30.21S WCI  30
CLOVIS AIRPORT SUNNY     34  16  47 N6        30.21S WCI  29

$$
NMZ028-029-538-272300-
SOUTHEAST PLAINS

CITY           SKY/WX    TMP DP  RH WIND       PRES   REMARKS
ROSWELL        SUNNY     41  20  43 N6        30.23S
ARTESIA          N/A     37  25  60 CALM      30.25S
CARLSBAD       LGT RAIN  37  30  75 W6        30.24S WCI  32
HOBBS          MOSUNNY   37  28  70 N12       30.23F WCI  30


$$


USA.gov is the U.S. government's official web portal to all federal, state and local government web resources and services.